Location: USNO
(38.9210°N, 77.0670°W)
Time: 15:55:10
(UTC-04:00)

BlueWalker 3 - Visible Passes

Search period start: 01 October 2023 00:00
Search period end: 11 October 2023 00:00
Orbit: 491 x 508 km, 53.2° (Epoch: 01 October)

Date Brightness Start Highest point End Pass type
(mag) Time Alt. Az. Time Alt. Az. Time Alt. Az.
01 Oct 3.5 05:32:38 13° NNW 05:35:34 33° NNE 05:39:06 10° E visible
02 Oct 3.5 05:12:25 24° N 05:13:58 33° NNE 05:17:29 10° E visible
03 Oct 3.4 04:52:21 33° NNE 04:52:21 33° NNE 04:55:52 10° E visible
03 Oct 2.8 06:27:17 10° WNW 06:30:45 32° SW 06:34:12 10° SSE visible
04 Oct 4.3 04:32:26 22° E 04:32:26 22° E 04:34:13 10° E visible
04 Oct 2.8 06:07:06 19° W 06:09:06 31° SW 06:12:33 10° SSE visible
05 Oct 2.7 05:47:22 31° SW 05:47:27 31° SW 05:50:52 10° SSE visible
06 Oct 3.8 05:27:45 19° S 05:27:45 19° S 05:29:11 10° SSE visible
06 Oct 4.4 20:44:38 10° SSW 20:45:10 13° SSW 20:45:10 13° SSW visible
07 Oct 2.9 20:22:56 10° SSW 20:25:23 33° S 20:25:23 33° S visible
08 Oct 2.2 20:01:13 10° SSW 20:04:51 45° SE 20:05:23 42° ESE visible
09 Oct 2.2 19:39:30 10° SSW 19:43:07 46° SE 19:45:12 22° ENE visible
09 Oct 4.7 21:18:28 10° W 21:19:51 18° WNW 21:19:51 18° WNW visible
10 Oct 2.2 19:17:44 10° SSW 19:21:22 46° SE 19:24:51 11° ENE visible
10 Oct 4.0 20:56:44 10° W 20:59:29 25° NW 20:59:29 25° NW visible
